Flag for Germany Weather past 2 weeks in Lübbecke, North Rhine-Westphalia, Germany

Now
54 °F

Rain showers. Broken clouds.


Feels Like: 53 °F
Forecast: 47 / 67 °F
Wind: 5 mph from Northwest

Location: Bueckeburg

Current Time: Aug 20, 2014 at 5:08:32 PM

Latest Report: Aug 20, 2014 at 4:20 PM


Visibility: 5 mi

Pressure: 29.98 "Hg

Humidity: 88%

Dew point: 50 °F

Location of LübbeckeLocation

Historic Weather in Lübbecke — Graph

°F

Lübbecke temperature yesterday

Maximum temperature yesterday: 59 °F (at 5:20 PM)
Minimum temperature yesterday: 52 °F (at 11:20 PM)
Average temperature yesterday: 55 °F

Past Weeks' High & Low Weather Summary

 TemperatureHumidityPressure
High79 °F (Aug 8, 3:20 PM)100% (Aug 7, 5:20 AM)30.09 "Hg (Aug 7, 5:20 AM)
Low50 °F (Aug 20, 1:20 AM)38% (Aug 11, 5:20 PM)29.56 "Hg (Aug 10, 8:20 PM)
Average63 °F73%29.84 "Hg
* Reported Aug 5 3:20 PM — Aug 20 3:20 PM, Lübbecke, Weather by CustomWeather, © 2014

Note: Actual official high and low records may vary slightly from our data, if they occured in-between our weather recording intervals... More about our weather records

Advertising

Lübbecke weather history for previous 24 hours

 ConditionsComfort  
Time TempWeatherWind HumidityBarometerVisibility
3:20 PM
Aug 20
64 °FScattered clouds.10 mph52%29.98 "HgN/A
2:20 PM59 °FScattered clouds.13 mph63%29.98 "HgN/A
1:20 PM61 °FScattered showers. Scattered clouds.12 mph59%29.98 "HgN/A
12:20 PM63 °FScattered clouds.16 mph59%29.95 "HgN/A
11:20 AM61 °FScattered clouds.16 mph63%29.95 "HgN/A
10:20 AM57 °FPassing clouds.14 mph72%29.95 "HgN/A
9:20 AM55 °FPassing clouds.10 mph77%29.95 "HgN/A
8:20 AM52 °FPassing clouds.10 mph82%29.95 "HgN/A
7:20 AM50 °FPassing clouds.9 mph88%29.92 "HgN/A
6:20 AM50 °FPassing clouds.10 mph82%29.92 "HgN/A
5:20 AM50 °FPassing clouds.13 mph82%29.92 "HgN/A
4:20 AM50 °FPartly cloudy.13 mph88%29.89 "HgN/A
3:20 AM50 °FPassing clouds.13 mph82%29.89 "HgN/A
2:20 AM50 °FPassing clouds.10 mph82%29.89 "HgN/A
1:20 AM50 °FPassing clouds.12 mph88%29.89 "HgN/A
12:20 AM52 °FPassing clouds.12 mph82%29.89 "HgN/A
11:20 PM
Aug 19
52 °FPassing clouds.10 mph82%29.86 "HgN/A
10:20 PM54 °FPartly cloudy.13 mph77%29.86 "HgN/A
9:20 PM55 °FBroken clouds.13 mph72%29.86 "HgN/A
8:20 PM55 °FPartly sunny.16 mph72%29.83 "HgN/A
7:20 PM57 °FScattered clouds.16 mph67%29.80 "HgN/A
6:20 PM57 °FSprinkles. Scattered clouds.12 mph77%29.80 "HgN/A
5:20 PM59 °FPassing clouds.14 mph77%29.80 "HgN/A
Weather by CustomWeather, © 2014

See weather overviewHow to use our weather pages